Year,Month,Day,Hour,Minute,Value (Times are PST for temperature in C)
2019,04,26,00,00,8.50
2019,04,26,00,01,8.50
2019,04,26,00,02,8.50
2019,04,26,00,03,8.50
2019,04,26,00,04,8.50
2019,04,26,00,05,8.50
2019,04,26,00,06,8.50
2019,04,26,00,07,8.50
2019,04,26,00,08,8.50
2019,04,26,00,09,8.50
2019,04,26,00,10,8.50
2019,04,26,00,11,8.50
2019,04,26,00,12,8.50
2019,04,26,00,13,8.50
2019,04,26,00,14,8.50
2019,04,26,00,15,8.50
2019,04,26,00,16,8.50
2019,04,26,00,17,8.50
2019,04,26,00,18,8.50
2019,04,26,00,19,8.50
2019,04,26,00,20,8.50
2019,04,26,00,21,8.50
2019,04,26,00,22,8.50
2019,04,26,00,23,8.50
2019,04,26,00,24,8.50
2019,04,26,00,25,8.60
2019,04,26,00,26,8.60
2019,04,26,00,27,8.60
2019,04,26,00,28,8.60
2019,04,26,00,29,8.60
2019,04,26,00,30,8.60
2019,04,26,00,31,8.60
2019,04,26,00,32,8.60
2019,04,26,00,33,8.60
2019,04,26,00,34,8.60
2019,04,26,00,35,8.60
2019,04,26,00,36,8.60
2019,04,26,00,37,8.60
2019,04,26,00,38,8.60
2019,04,26,00,39,8.50
2019,04,26,00,40,8.50
2019,04,26,00,41,8.50
2019,04,26,00,42,8.50
2019,04,26,00,43,8.40
2019,04,26,00,44,8.40
2019,04,26,00,45,8.40
2019,04,26,00,46,8.40
2019,04,26,00,47,8.40
2019,04,26,00,48,8.40
2019,04,26,00,49,8.30
2019,04,26,00,50,8.30
2019,04,26,00,51,8.30
2019,04,26,00,52,8.30
2019,04,26,00,53,8.30
2019,04,26,00,54,8.20
2019,04,26,00,55,8.20
2019,04,26,00,56,8.20
2019,04,26,00,57,8.20
2019,04,26,00,58,8.20
2019,04,26,00,59,8.10
2019,04,26,01,00,8.10
2019,04,26,01,01,8.10
2019,04,26,01,02,8.10
2019,04,26,01,03,8.10
2019,04,26,01,04,8.10
2019,04,26,01,05,8.10
2019,04,26,01,06,8.10
2019,04,26,01,07,8.10
2019,04,26,01,08,8.00
2019,04,26,01,09,8.00
2019,04,26,01,10,8.00
2019,04,26,01,11,8.00
2019,04,26,01,12,8.00
2019,04,26,01,13,8.00
2019,04,26,01,14,8.00
2019,04,26,01,15,8.00
2019,04,26,01,16,8.00
2019,04,26,01,17,8.00
2019,04,26,01,18,7.90
2019,04,26,01,19,7.90
2019,04,26,01,20,7.90
2019,04,26,01,21,7.90
2019,04,26,01,22,7.90
2019,04,26,01,23,7.90
2019,04,26,01,24,7.90
2019,04,26,01,25,7.90
2019,04,26,01,26,7.90
2019,04,26,01,27,7.90
2019,04,26,01,28,7.90
2019,04,26,01,29,7.90
2019,04,26,01,30,7.90
2019,04,26,01,31,7.90
2019,04,26,01,32,7.90
2019,04,26,01,33,7.80
2019,04,26,01,34,7.80
2019,04,26,01,35,7.80
2019,04,26,01,36,7.80
2019,04,26,01,37,7.80
2019,04,26,01,38,7.80
2019,04,26,01,39,7.80
2019,04,26,01,40,7.80
2019,04,26,01,41,7.80
2019,04,26,01,42,7.80
2019,04,26,01,43,7.80
2019,04,26,01,44,7.80
2019,04,26,01,45,7.80
2019,04,26,01,46,7.80
2019,04,26,01,47,7.80
2019,04,26,01,48,7.80
2019,04,26,01,49,7.80
2019,04,26,01,50,7.80
2019,04,26,01,51,7.80
2019,04,26,01,52,7.80
2019,04,26,01,53,7.70
2019,04,26,01,54,7.70
2019,04,26,01,55,7.70
2019,04,26,01,56,7.70
2019,04,26,01,57,7.60
2019,04,26,01,58,7.60
2019,04,26,01,59,7.60
2019,04,26,02,00,7.50
2019,04,26,02,01,7.50
2019,04,26,02,02,7.50
2019,04,26,02,03,7.50
2019,04,26,02,04,7.50
2019,04,26,02,05,7.50
2019,04,26,02,06,7.50
2019,04,26,02,07,7.50
2019,04,26,02,08,7.50
2019,04,26,02,09,7.50
2019,04,26,02,10,7.50
2019,04,26,02,11,7.50
2019,04,26,02,12,7.50
2019,04,26,02,13,7.50
2019,04,26,02,14,7.40
2019,04,26,02,15,7.40
2019,04,26,02,16,7.40
2019,04,26,02,17,7.40
2019,04,26,02,18,7.30
2019,04,26,02,19,7.30
2019,04,26,02,20,7.30
2019,04,26,02,21,7.30
2019,04,26,02,22,7.20
2019,04,26,02,23,7.20
2019,04,26,02,24,7.20
2019,04,26,02,25,7.20
2019,04,26,02,26,7.20
2019,04,26,02,27,7.10
2019,04,26,02,28,7.10
2019,04,26,02,29,7.10
2019,04,26,02,30,7.10
2019,04,26,02,31,7.10
2019,04,26,02,32,7.10
2019,04,26,02,33,7.10
2019,04,26,02,34,7.10
2019,04,26,02,35,7.10
2019,04,26,02,36,7.10
2019,04,26,02,37,7.10
2019,04,26,02,38,7.10
2019,04,26,02,39,7.10
2019,04,26,02,40,7.10
2019,04,26,02,41,7.10
2019,04,26,02,42,7.10
2019,04,26,02,43,7.10
2019,04,26,02,44,7.00
2019,04,26,02,45,7.00
2019,04,26,02,46,6.90
2019,04,26,02,47,6.90
2019,04,26,02,48,6.90
2019,04,26,02,49,6.80
2019,04,26,02,50,6.80
2019,04,26,02,51,6.70
2019,04,26,02,52,6.60
2019,04,26,02,53,6.60
2019,04,26,02,54,6.50
2019,04,26,02,55,6.40
2019,04,26,02,56,6.30
2019,04,26,02,57,6.30
2019,04,26,02,58,6.20
2019,04,26,02,59,6.10
2019,04,26,03,00,6.00
2019,04,26,03,01,5.90
2019,04,26,03,02,5.80
2019,04,26,03,03,5.80
2019,04,26,03,04,5.70
2019,04,26,03,05,5.70
2019,04,26,03,06,5.60
2019,04,26,03,07,5.60
2019,04,26,03,08,5.60
2019,04,26,03,09,5.50
2019,04,26,03,10,5.50
2019,04,26,03,11,5.40
2019,04,26,03,12,5.40
2019,04,26,03,13,5.40
2019,04,26,03,14,5.40
2019,04,26,03,15,5.40
2019,04,26,03,16,5.40
2019,04,26,03,17,5.30
2019,04,26,03,18,5.30
2019,04,26,03,19,5.30
2019,04,26,03,20,5.30
2019,04,26,03,21,5.30
2019,04,26,03,22,5.30
2019,04,26,03,23,5.30
2019,04,26,03,24,5.20
2019,04,26,03,25,5.20
2019,04,26,03,26,5.20
2019,04,26,03,27,5.20
2019,04,26,03,28,5.20
2019,04,26,03,29,5.10
2019,04,26,03,30,5.10
2019,04,26,03,31,5.10
2019,04,26,03,32,5.10
2019,04,26,03,33,5.00
2019,04,26,03,34,5.00
2019,04,26,03,35,5.00
2019,04,26,03,36,4.90
2019,04,26,03,37,4.90
2019,04,26,03,38,4.90
2019,04,26,03,39,4.90
2019,04,26,03,40,4.80
2019,04,26,03,41,4.80
2019,04,26,03,42,4.80
2019,04,26,03,43,4.80
2019,04,26,03,44,4.80
2019,04,26,03,45,4.70
2019,04,26,03,46,4.70
2019,04,26,03,47,4.70
2019,04,26,03,48,4.70
2019,04,26,03,49,4.60
2019,04,26,03,50,4.60
2019,04,26,03,51,4.60
2019,04,26,03,52,4.50
2019,04,26,03,53,4.50
2019,04,26,03,54,4.50
2019,04,26,03,55,4.40
2019,04,26,03,56,4.40
2019,04,26,03,57,4.30
2019,04,26,03,58,4.30
2019,04,26,03,59,4.30
2019,04,26,04,00,4.30
2019,04,26,04,01,4.30
2019,04,26,04,02,4.20
2019,04,26,04,03,4.20
2019,04,26,04,04,4.20
2019,04,26,04,05,4.20
2019,04,26,04,06,4.20
2019,04,26,04,07,4.20
2019,04,26,04,08,4.20
2019,04,26,04,09,4.20
2019,04,26,04,10,4.20
2019,04,26,04,11,4.10
2019,04,26,04,12,4.10
2019,04,26,04,13,4.10
2019,04,26,04,14,4.10
2019,04,26,04,15,4.10
2019,04,26,04,16,4.10
2019,04,26,04,17,4.10
2019,04,26,04,18,4.10
2019,04,26,04,19,4.00
2019,04,26,04,20,4.00
2019,04,26,04,21,4.00
2019,04,26,04,22,3.90
2019,04,26,04,23,3.90
2019,04,26,04,24,3.90
2019,04,26,04,25,3.90
2019,04,26,04,26,3.90
2019,04,26,04,27,3.80
2019,04,26,04,28,3.80
2019,04,26,04,29,3.80
2019,04,26,04,30,3.80
2019,04,26,04,31,3.80
2019,04,26,04,32,3.80
2019,04,26,04,33,3.80
2019,04,26,04,34,3.70
2019,04,26,04,35,3.70
2019,04,26,04,36,3.70
2019,04,26,04,37,3.70
2019,04,26,04,38,3.70
2019,04,26,04,39,3.70
2019,04,26,04,40,3.70
2019,04,26,04,41,3.70
2019,04,26,04,42,3.70
2019,04,26,04,43,3.70
2019,04,26,04,44,3.60
2019,04,26,04,45,3.60
2019,04,26,04,46,3.60
2019,04,26,04,47,3.60
2019,04,26,04,48,3.50
2019,04,26,04,49,3.50
2019,04,26,04,50,3.50
2019,04,26,04,51,3.50
2019,04,26,04,52,3.50
2019,04,26,04,53,3.50
2019,04,26,04,54,3.50
2019,04,26,04,55,3.50
2019,04,26,04,56,3.50
2019,04,26,04,57,3.50
2019,04,26,04,58,3.50
2019,04,26,04,59,3.50
2019,04,26,05,00,3.50
2019,04,26,05,01,3.40
2019,04,26,05,02,3.40
2019,04,26,05,03,3.40
2019,04,26,05,04,3.40
2019,04,26,05,05,3.40
2019,04,26,05,06,3.40
2019,04,26,05,07,3.40
2019,04,26,05,08,3.30
2019,04,26,05,09,3.30
2019,04,26,05,10,3.30
2019,04,26,05,11,3.20
2019,04,26,05,12,3.20
2019,04,26,05,13,3.20
2019,04,26,05,14,3.20
2019,04,26,05,15,3.10
2019,04,26,05,16,3.10
2019,04,26,05,17,3.10
2019,04,26,05,18,3.10
2019,04,26,05,19,3.10
2019,04,26,05,20,3.10
2019,04,26,05,21,3.10
2019,04,26,05,22,3.10
2019,04,26,05,23,3.10
2019,04,26,05,24,3.10
2019,04,26,05,25,3.10
2019,04,26,05,26,3.10
2019,04,26,05,27,3.10
2019,04,26,05,28,3.10
2019,04,26,05,29,3.10
2019,04,26,05,30,3.10
2019,04,26,05,31,3.10
2019,04,26,05,32,3.10
2019,04,26,05,33,3.10
2019,04,26,05,34,3.10
2019,04,26,05,35,3.10
2019,04,26,05,36,3.10
2019,04,26,05,37,3.10
2019,04,26,05,38,3.10
2019,04,26,05,39,3.10
2019,04,26,05,40,3.10
2019,04,26,05,41,3.10
2019,04,26,05,42,3.10
2019,04,26,05,43,3.10
2019,04,26,05,44,3.10
2019,04,26,05,45,3.20
2019,04,26,05,46,3.20
2019,04,26,05,47,3.20
2019,04,26,05,48,3.20
2019,04,26,05,49,3.20
2019,04,26,05,50,3.30
2019,04,26,05,51,3.30
2019,04,26,05,52,3.30
2019,04,26,05,53,3.30
2019,04,26,05,54,3.30
2019,04,26,05,55,3.40
2019,04,26,05,56,3.40
2019,04,26,05,57,3.40
2019,04,26,05,58,3.40
2019,04,26,05,59,3.40
2019,04,26,06,00,3.40
2019,04,26,06,01,3.50
2019,04,26,06,02,3.50
2019,04,26,06,03,3.50
2019,04,26,06,04,3.50
2019,04,26,06,05,3.60
2019,04,26,06,06,3.60
2019,04,26,06,07,3.60
2019,04,26,06,08,3.60
2019,04,26,06,09,3.60
2019,04,26,06,10,3.60
2019,04,26,06,11,3.70
2019,04,26,06,12,3.70
2019,04,26,06,13,3.70
2019,04,26,06,14,3.70
2019,04,26,06,15,3.70
2019,04,26,06,16,3.80
2019,04,26,06,17,3.90
2019,04,26,06,18,3.90
2019,04,26,06,19,3.90
2019,04,26,06,20,3.90
2019,04,26,06,21,3.90
2019,04,26,06,22,4.00
2019,04,26,06,23,4.00
2019,04,26,06,24,4.00
2019,04,26,06,25,4.00
2019,04,26,06,26,3.90
2019,04,26,06,27,3.90
2019,04,26,06,28,3.90
2019,04,26,06,29,3.90
2019,04,26,06,30,3.90
2019,04,26,06,31,3.90
2019,04,26,06,32,3.90
2019,04,26,06,33,3.90
2019,04,26,06,34,3.90
2019,04,26,06,35,3.80
2019,04,26,06,36,3.80
2019,04,26,06,37,3.80
2019,04,26,06,38,3.80
2019,04,26,06,39,3.80
2019,04,26,06,40,3.80
2019,04,26,06,41,3.80
2019,04,26,06,42,3.80
2019,04,26,06,43,3.80
2019,04,26,06,44,3.80
2019,04,26,06,45,3.70
2019,04,26,06,46,3.70
2019,04,26,06,47,3.80
2019,04,26,06,48,3.80
2019,04,26,06,49,3.80
2019,04,26,06,50,3.80
2019,04,26,06,51,3.80
2019,04,26,06,52,3.80
2019,04,26,06,53,3.80
2019,04,26,06,54,3.80
2019,04,26,06,55,3.80
2019,04,26,06,56,3.80
2019,04,26,06,57,3.90
2019,04,26,06,58,3.90
2019,04,26,06,59,3.90
2019,04,26,07,00,3.90
2019,04,26,07,01,3.90
2019,04,26,07,02,4.00
2019,04,26,07,03,4.00
2019,04,26,07,04,4.00
2019,04,26,07,05,4.10
2019,04,26,07,06,4.10
2019,04,26,07,07,4.20
2019,04,26,07,08,4.20
2019,04,26,07,09,4.30
2019,04,26,07,10,4.30
2019,04,26,07,11,4.40
2019,04,26,07,12,4.40
2019,04,26,07,13,4.50
2019,04,26,07,14,4.60
2019,04,26,07,15,4.80
2019,04,26,07,16,4.90
2019,04,26,07,17,5.00
2019,04,26,07,18,5.10
2019,04,26,07,19,5.20
2019,04,26,07,20,5.30
2019,04,26,07,21,5.50
2019,04,26,07,22,5.60
2019,04,26,07,23,5.70
2019,04,26,07,24,5.80
2019,04,26,07,25,6.00
2019,04,26,07,26,6.10
2019,04,26,07,27,6.20
2019,04,26,07,28,6.30
2019,04,26,07,29,6.40
2019,04,26,07,30,6.50
2019,04,26,07,31,6.60
2019,04,26,07,32,6.80
2019,04,26,07,33,6.90
2019,04,26,07,34,7.00
2019,04,26,07,35,7.10
2019,04,26,07,36,7.20
2019,04,26,07,37,7.30
2019,04,26,07,38,7.40
2019,04,26,07,39,7.50
2019,04,26,07,40,7.60
2019,04,26,07,41,7.70
2019,04,26,07,42,7.80
2019,04,26,07,43,7.90
2019,04,26,07,44,8.00
2019,04,26,07,45,8.10
2019,04,26,07,46,8.20
2019,04,26,07,47,8.30
2019,04,26,07,48,8.40
2019,04,26,07,49,8.50
2019,04,26,07,50,8.60
2019,04,26,07,51,8.70
2019,04,26,07,52,8.80
2019,04,26,07,53,8.90
2019,04,26,07,54,9.00
2019,04,26,07,55,9.10
2019,04,26,07,56,9.20
2019,04,26,07,57,9.30
2019,04,26,07,58,9.40
2019,04,26,07,59,9.50
2019,04,26,08,00,9.60
2019,04,26,08,01,9.70
2019,04,26,08,02,9.80
2019,04,26,08,03,9.90
2019,04,26,08,04,10.00
2019,04,26,08,05,10.10
2019,04,26,08,06,10.20
2019,04,26,08,07,10.30
2019,04,26,08,08,10.40
2019,04,26,08,09,10.50
2019,04,26,08,10,10.60
2019,04,26,08,11,10.70
2019,04,26,08,12,10.80
2019,04,26,08,13,10.80
2019,04,26,08,14,10.90
2019,04,26,08,15,10.90
2019,04,26,08,16,11.00
2019,04,26,08,17,11.10
2019,04,26,08,18,11.20
2019,04,26,08,19,11.20
2019,04,26,08,20,11.30
2019,04,26,08,21,11.40
2019,04,26,08,22,11.40
2019,04,26,08,23,11.40
2019,04,26,08,24,11.40
2019,04,26,08,25,11.50
2019,04,26,08,26,11.50
2019,04,26,08,27,11.50
2019,04,26,08,28,11.50
2019,04,26,08,29,11.60
2019,04,26,08,30,11.60
2019,04,26,08,31,11.60
2019,04,26,08,32,11.70
2019,04,26,08,33,11.70
2019,04,26,08,34,11.80
2019,04,26,08,35,11.80
2019,04,26,08,36,11.80
2019,04,26,08,37,11.90
2019,04,26,08,38,11.90
2019,04,26,08,39,11.90
2019,04,26,08,40,11.90
2019,04,26,08,41,12.00
2019,04,26,08,42,12.00
2019,04,26,08,43,12.00
2019,04,26,08,44,12.10
2019,04,26,08,45,12.10
2019,04,26,08,46,12.20
2019,04,26,08,47,12.20
2019,04,26,08,48,12.30
2019,04,26,08,49,12.30
2019,04,26,08,50,12.30
2019,04,26,08,51,12.30
2019,04,26,08,52,12.30
2019,04,26,08,53,12.30
2019,04,26,08,54,12.20
2019,04,26,08,55,12.20
2019,04,26,08,56,12.20
2019,04,26,08,57,12.20
2019,04,26,08,58,12.20
2019,04,26,08,59,12.20
2019,04,26,09,00,12.20
2019,04,26,09,01,12.30
2019,04,26,09,02,12.30
2019,04,26,09,03,12.30
2019,04,26,09,04,12.30
2019,04,26,09,05,12.30
2019,04,26,09,06,12.30
2019,04,26,09,07,12.30
2019,04,26,09,08,12.30
2019,04,26,09,09,12.30
2019,04,26,09,10,12.30
2019,04,26,09,11,12.30
2019,04,26,09,12,12.30
2019,04,26,09,13,12.40
2019,04,26,09,14,12.40
2019,04,26,09,15,12.50
2019,04,26,09,16,12.50
2019,04,26,09,17,12.50
2019,04,26,09,18,12.50
2019,04,26,09,19,12.50
2019,04,26,09,20,12.50
2019,04,26,09,21,12.40
2019,04,26,09,22,12.50
2019,04,26,09,23,12.50
2019,04,26,09,24,12.50
2019,04,26,09,25,12.50
2019,04,26,09,26,12.40
2019,04,26,09,27,12.50
2019,04,26,09,28,12.50
2019,04,26,09,29,12.50
2019,04,26,09,30,12.60
2019,04,26,09,31,12.60
2019,04,26,09,32,12.60
2019,04,26,09,33,12.60
2019,04,26,09,34,12.70
2019,04,26,09,35,12.70
2019,04,26,09,36,12.70
2019,04,26,09,37,12.80
2019,04,26,09,38,12.80
2019,04,26,09,39,12.80
2019,04,26,09,40,12.80
2019,04,26,09,41,12.80
2019,04,26,09,42,12.80
2019,04,26,09,43,12.80
2019,04,26,09,44,12.80
2019,04,26,09,45,12.70
2019,04,26,09,46,12.70
2019,04,26,09,47,12.70
2019,04,26,09,48,12.70
2019,04,26,09,49,12.70
2019,04,26,09,50,12.80
2019,04,26,09,51,12.80
2019,04,26,09,52,12.80
2019,04,26,09,53,12.80
2019,04,26,09,54,12.90
2019,04,26,09,55,12.90
2019,04,26,09,56,12.90
2019,04,26,09,57,12.90
2019,04,26,09,58,12.90
2019,04,26,09,59,12.90
2019,04,26,10,00,13.00
2019,04,26,10,01,13.00
2019,04,26,10,02,13.00
2019,04,26,10,03,13.00
2019,04,26,10,04,13.10
2019,04,26,10,05,13.10
2019,04,26,10,06,13.10
2019,04,26,10,07,13.00
2019,04,26,10,08,12.90
2019,04,26,10,09,12.90
2019,04,26,10,10,12.90
2019,04,26,10,11,12.90
2019,04,26,10,12,12.90
2019,04,26,10,13,12.90
2019,04,26,10,14,12.90
2019,04,26,10,15,12.90
2019,04,26,10,16,12.90
2019,04,26,10,17,12.90
2019,04,26,10,18,12.90
2019,04,26,10,19,12.90
2019,04,26,10,20,12.90
2019,04,26,10,21,12.90
2019,04,26,10,22,12.80
2019,04,26,10,23,12.70
2019,04,26,10,24,12.60
2019,04,26,10,25,12.60
2019,04,26,10,26,12.60
2019,04,26,10,27,12.50
2019,04,26,10,28,12.50
2019,04,26,10,29,12.50
2019,04,26,10,30,12.50
2019,04,26,10,31,12.50
2019,04,26,10,32,12.60
2019,04,26,10,33,12.60
2019,04,26,10,34,12.60
2019,04,26,10,35,12.60
2019,04,26,10,36,12.60
2019,04,26,10,37,12.60
2019,04,26,10,38,12.50
2019,04,26,10,39,12.50
2019,04,26,10,40,12.50
2019,04,26,10,41,12.40
2019,04,26,10,42,12.50
2019,04,26,10,43,12.40
2019,04,26,10,44,12.40
2019,04,26,10,45,12.30
2019,04,26,10,46,12.30
2019,04,26,10,47,12.20
2019,04,26,10,48,12.20
2019,04,26,10,49,12.10
2019,04,26,10,50,12.10
2019,04,26,10,51,12.20
2019,04,26,10,52,12.20
2019,04,26,10,53,12.30
2019,04,26,10,54,12.30
2019,04,26,10,55,12.30
2019,04,26,10,56,12.20
2019,04,26,10,57,12.20
2019,04,26,10,58,12.20
2019,04,26,10,59,12.20
2019,04,26,11,00,12.20
2019,04,26,11,01,12.20
2019,04,26,11,02,12.20
2019,04,26,11,03,12.30
2019,04,26,11,04,12.30
2019,04,26,11,05,12.30
2019,04,26,11,06,12.30
2019,04,26,11,07,12.40
2019,04,26,11,08,12.30
2019,04,26,11,09,12.30
2019,04,26,11,10,12.30
2019,04,26,11,11,12.30
2019,04,26,11,12,12.30
2019,04,26,11,13,12.30
2019,04,26,11,14,12.30
2019,04,26,11,15,12.30
2019,04,26,11,16,12.30
2019,04,26,11,17,12.30
2019,04,26,11,18,12.30
2019,04,26,11,19,12.30
2019,04,26,11,20,12.20
2019,04,26,11,21,12.20
2019,04,26,11,22,12.20
2019,04,26,11,23,12.20
2019,04,26,11,24,12.10
2019,04,26,11,25,12.10
2019,04,26,11,26,12.10
2019,04,26,11,27,12.10
2019,04,26,11,28,12.10
2019,04,26,11,29,12.20
2019,04,26,11,30,12.20
2019,04,26,11,31,12.20
2019,04,26,11,32,12.10
2019,04,26,11,33,12.10
2019,04,26,11,34,12.10
2019,04,26,11,35,12.10
2019,04,26,11,36,12.10
2019,04,26,11,37,12.20
2019,04,26,11,38,12.30
2019,04,26,11,39,12.30
2019,04,26,11,40,12.40
2019,04,26,11,41,12.40
2019,04,26,11,42,12.50
2019,04,26,11,43,12.50
2019,04,26,11,44,12.50
2019,04,26,11,45,12.50
2019,04,26,11,46,12.50
2019,04,26,11,47,12.60
2019,04,26,11,48,12.50
2019,04,26,11,49,12.50
2019,04,26,11,50,12.50
2019,04,26,11,51,12.50
2019,04,26,11,52,12.50
2019,04,26,11,53,12.60
2019,04,26,11,54,12.60
2019,04,26,11,55,12.70
2019,04,26,11,56,12.80
2019,04,26,11,57,12.90
2019,04,26,11,58,13.00
2019,04,26,11,59,13.10
2019,04,26,12,00,13.20
2019,04,26,12,01,13.30
2019,04,26,12,02,13.30
2019,04,26,12,03,13.30
2019,04,26,12,04,13.20
2019,04,26,12,05,13.10
2019,04,26,12,06,13.00
2019,04,26,12,07,12.90
2019,04,26,12,08,12.90
2019,04,26,12,09,13.00
2019,04,26,12,10,13.00
2019,04,26,12,11,13.00
2019,04,26,12,12,13.00
2019,04,26,12,13,13.00
2019,04,26,12,14,12.90
2019,04,26,12,15,12.90
2019,04,26,12,16,12.90
2019,04,26,12,17,12.90
2019,04,26,12,18,12.90
2019,04,26,12,19,12.90
2019,04,26,12,20,12.80
2019,04,26,12,21,12.80
2019,04,26,12,22,12.80
2019,04,26,12,23,12.80
2019,04,26,12,24,12.70
2019,04,26,12,25,12.70
2019,04,26,12,26,12.70
2019,04,26,12,27,12.80
2019,04,26,12,28,12.80
2019,04,26,12,29,12.80
2019,04,26,12,30,12.80
2019,04,26,12,31,12.70
2019,04,26,12,32,12.60
2019,04,26,12,33,12.50
2019,04,26,12,34,12.30
2019,04,26,12,35,12.20
2019,04,26,12,36,12.20
2019,04,26,12,37,12.10
2019,04,26,12,38,12.10
2019,04,26,12,39,12.10
2019,04,26,12,40,12.10
2019,04,26,12,41,12.20
2019,04,26,12,42,12.20
2019,04,26,12,43,12.30
2019,04,26,12,44,12.40
2019,04,26,12,45,12.50
2019,04,26,12,46,12.60
2019,04,26,12,47,12.70
2019,04,26,12,48,12.70
2019,04,26,12,49,12.70
2019,04,26,12,50,12.70
2019,04,26,12,51,12.70
2019,04,26,12,52,12.70
2019,04,26,12,53,12.70
2019,04,26,12,54,12.70
2019,04,26,12,55,12.60
2019,04,26,12,56,12.60
2019,04,26,12,57,12.50
2019,04,26,12,58,12.50
2019,04,26,12,59,12.40
2019,04,26,13,00,12.50
2019,04,26,13,01,12.60
2019,04,26,13,02,12.70
2019,04,26,13,03,12.80
2019,04,26,13,04,12.90
2019,04,26,13,05,13.00
2019,04,26,13,06,13.00
2019,04,26,13,07,13.00
2019,04,26,13,08,12.90
2019,04,26,13,09,12.90
2019,04,26,13,10,12.80
2019,04,26,13,11,12.80
2019,04,26,13,12,12.80
2019,04,26,13,13,12.80
2019,04,26,13,14,12.80
2019,04,26,13,15,12.90
2019,04,26,13,16,12.90
2019,04,26,13,17,12.90
2019,04,26,13,18,13.00
2019,04,26,13,19,13.00
2019,04,26,13,20,13.00
2019,04,26,13,21,13.00
2019,04,26,13,22,12.90
2019,04,26,13,23,12.90
2019,04,26,13,24,12.90
2019,04,26,13,25,13.00
2019,04,26,13,26,13.00
2019,04,26,13,27,13.00
2019,04,26,13,28,13.00
2019,04,26,13,29,13.00
2019,04,26,13,30,13.00
2019,04,26,13,31,13.00
2019,04,26,13,32,13.00
2019,04,26,13,33,13.00
2019,04,26,13,34,13.00
2019,04,26,13,35,13.00
2019,04,26,13,36,12.90
2019,04,26,13,37,12.90
2019,04,26,13,38,12.90
2019,04,26,13,39,12.90
2019,04,26,13,40,13.00
2019,04,26,13,41,13.00
2019,04,26,13,42,13.10
2019,04,26,13,43,13.10
2019,04,26,13,44,13.20
2019,04,26,13,45,13.20
2019,04,26,13,46,13.20
2019,04,26,13,47,13.30
2019,04,26,13,48,13.30
2019,04,26,13,49,13.30
2019,04,26,13,50,13.30
2019,04,26,13,51,13.30
2019,04,26,13,52,13.20
2019,04,26,13,53,13.20
2019,04,26,13,54,13.20
2019,04,26,13,55,13.10
2019,04,26,13,56,13.00
2019,04,26,13,57,13.00
2019,04,26,13,58,13.00
2019,04,26,13,59,12.90
2019,04,26,14,00,12.90
2019,04,26,14,01,12.90
2019,04,26,14,02,12.80
2019,04,26,14,03,12.80
2019,04,26,14,04,12.80
2019,04,26,14,05,12.80
2019,04,26,14,06,12.80
2019,04,26,14,07,12.80
2019,04,26,14,08,12.70
2019,04,26,14,09,12.60
2019,04,26,14,10,12.60
2019,04,26,14,11,12.60
2019,04,26,14,12,12.60
2019,04,26,14,13,12.60
2019,04,26,14,14,12.60
2019,04,26,14,15,12.60
2019,04,26,14,16,12.60
2019,04,26,14,17,12.60
2019,04,26,14,18,12.50
2019,04,26,14,19,12.50
2019,04,26,14,20,12.50
2019,04,26,14,21,12.50
2019,04,26,14,22,12.40
2019,04,26,14,23,12.40
2019,04,26,14,24,12.30
2019,04,26,14,25,12.30
2019,04,26,14,26,12.20
2019,04,26,14,27,12.20
2019,04,26,14,28,12.20
2019,04,26,14,29,12.10
2019,04,26,14,30,12.10
2019,04,26,14,31,12.10
2019,04,26,14,32,12.10
2019,04,26,14,33,12.10
2019,04,26,14,34,12.10
2019,04,26,14,35,12.10
2019,04,26,14,36,12.10
2019,04,26,14,37,12.10
2019,04,26,14,38,12.10
2019,04,26,14,39,12.10
2019,04,26,14,40,12.10
2019,04,26,14,41,12.20
2019,04,26,14,42,12.20
2019,04,26,14,43,12.20
2019,04,26,14,44,12.30
2019,04,26,14,45,12.40
2019,04,26,14,46,12.40
2019,04,26,14,47,12.40
2019,04,26,14,48,12.30
2019,04,26,14,49,12.30
2019,04,26,14,50,12.30
2019,04,26,14,51,12.30
2019,04,26,14,52,12.30
2019,04,26,14,53,12.20
2019,04,26,14,54,12.20
2019,04,26,14,55,12.20
2019,04,26,14,56,12.20
2019,04,26,14,57,12.20
2019,04,26,14,58,12.30
2019,04,26,14,59,12.30
2019,04,26,15,00,12.30
2019,04,26,15,01,12.40
2019,04,26,15,02,12.40
2019,04,26,15,03,12.40
2019,04,26,15,04,12.50
2019,04,26,15,05,12.50
2019,04,26,15,06,12.50
2019,04,26,15,07,12.60
2019,04,26,15,08,12.60
2019,04,26,15,09,12.60
2019,04,26,15,10,12.70
2019,04,26,15,11,12.70
2019,04,26,15,12,12.80
2019,04,26,15,13,12.80
2019,04,26,15,14,12.90
2019,04,26,15,15,12.90
2019,04,26,15,16,12.90
2019,04,26,15,17,12.90
2019,04,26,15,18,12.90
2019,04,26,15,19,12.90
2019,04,26,15,20,12.90
2019,04,26,15,21,12.90
2019,04,26,15,22,12.90
2019,04,26,15,23,12.90
2019,04,26,15,24,13.00
2019,04,26,15,25,13.00
2019,04,26,15,26,13.00
2019,04,26,15,27,13.00
2019,04,26,15,28,13.00
2019,04,26,15,29,13.00
2019,04,26,15,30,13.00
2019,04,26,15,31,12.90
2019,04,26,15,32,12.90
2019,04,26,15,33,12.90
2019,04,26,15,34,12.90
2019,04,26,15,35,12.90
2019,04,26,15,36,12.90
2019,04,26,15,37,12.90
2019,04,26,15,38,12.90
2019,04,26,15,39,12.90
2019,04,26,15,40,12.90
2019,04,26,15,41,12.90
2019,04,26,15,42,12.90
2019,04,26,15,43,12.90
2019,04,26,15,44,12.90
2019,04,26,15,45,12.90
2019,04,26,15,46,12.90
2019,04,26,15,47,12.90
2019,04,26,15,48,12.90
2019,04,26,15,49,12.80
2019,04,26,15,50,12.80
2019,04,26,15,51,12.80
2019,04,26,15,52,12.80
2019,04,26,15,53,12.80
2019,04,26,15,54,12.80
2019,04,26,15,55,12.80
2019,04,26,15,56,12.90
2019,04,26,15,57,12.80
2019,04,26,15,58,12.80
2019,04,26,15,59,12.80
2019,04,26,16,00,12.80
2019,04,26,16,01,12.70
2019,04,26,16,02,12.70
2019,04,26,16,03,12.60
2019,04,26,16,04,12.50
2019,04,26,16,05,12.50
2019,04,26,16,06,12.40
2019,04,26,16,07,12.40
2019,04,26,16,08,12.40
2019,04,26,16,09,12.40
2019,04,26,16,10,12.40
2019,04,26,16,11,12.40
2019,04,26,16,12,12.40
2019,04,26,16,13,12.40
2019,04,26,16,14,12.40
2019,04,26,16,15,12.40
2019,04,26,16,16,12.40
2019,04,26,16,17,12.40
2019,04,26,16,18,12.40
2019,04,26,16,19,12.40
2019,04,26,16,20,12.40
2019,04,26,16,21,12.40
2019,04,26,16,22,12.40
2019,04,26,16,23,12.50
2019,04,26,16,24,12.50
2019,04,26,16,25,12.60
2019,04,26,16,26,12.60
2019,04,26,16,27,12.60
2019,04,26,16,28,12.60
2019,04,26,16,29,12.60
2019,04,26,16,30,12.60
2019,04,26,16,31,12.60
2019,04,26,16,32,12.60
2019,04,26,16,33,12.50
2019,04,26,16,34,12.50
2019,04,26,16,35,12.50
2019,04,26,16,36,12.60
2019,04,26,16,37,12.70
2019,04,26,16,38,12.70
2019,04,26,16,39,12.80
2019,04,26,16,40,12.90
2019,04,26,16,41,13.00
2019,04,26,16,42,13.00
2019,04,26,16,43,13.10
2019,04,26,16,44,13.10
2019,04,26,16,45,13.20
2019,04,26,16,46,13.20
2019,04,26,16,47,13.20
2019,04,26,16,48,13.20
2019,04,26,16,49,13.20
2019,04,26,16,50,13.20
2019,04,26,16,51,13.20
2019,04,26,16,52,13.20
2019,04,26,16,53,13.20
2019,04,26,16,54,13.10
2019,04,26,16,55,13.10
2019,04,26,16,56,13.10
2019,04,26,16,57,13.10
2019,04,26,16,58,13.10
2019,04,26,16,59,13.10
2019,04,26,17,00,13.20
2019,04,26,17,01,13.20
2019,04,26,17,02,13.20
2019,04,26,17,03,13.30
2019,04,26,17,04,13.30
2019,04,26,17,05,13.30
2019,04,26,17,06,13.40
2019,04,26,17,07,13.50
2019,04,26,17,08,13.50
2019,04,26,17,09,13.50
2019,04,26,17,10,13.50
2019,04,26,17,11,13.50
2019,04,26,17,12,13.40
2019,04,26,17,13,13.40
2019,04,26,17,14,13.50
2019,04,26,17,15,13.50
2019,04,26,17,16,13.50
2019,04,26,17,17,13.60
2019,04,26,17,18,13.70
2019,04,26,17,19,13.70
2019,04,26,17,20,13.80
2019,04,26,17,21,13.80
2019,04,26,17,22,13.80
2019,04,26,17,23,13.80
2019,04,26,17,24,13.80
2019,04,26,17,25,13.80
2019,04,26,17,26,13.80
2019,04,26,17,27,13.90
2019,04,26,17,28,13.90
2019,04,26,17,29,13.90
2019,04,26,17,30,13.90
2019,04,26,17,31,14.00
2019,04,26,17,32,14.10
2019,04,26,17,33,14.10
2019,04,26,17,34,14.20
2019,04,26,17,35,14.20
2019,04,26,17,36,14.20
2019,04,26,17,37,14.20
2019,04,26,17,38,14.20
2019,04,26,17,39,14.20
2019,04,26,17,40,14.30